Overview Statistics Trail Chart Weather Telemetry Raw packets
 

This is the latest recevied weather packets stored in our database for station/object KD8DNS. If no packets are shown the sender has not sent any weather packets the latest 10 day(s).

<< 86 87 88 89 90 91 92 >>
Time Temp. Humidity Pressure Rain* Wind** Luminosity Snow
1788036759 29.44° C 50% 1022.8 hPa 0 mm - 97 W/m² -
1788036456 29.44° C 49% 1022.9 hPa 0 mm - 95 W/m² -
1788036151 30° C 53% 1023.2 hPa 0 mm - 78 W/m² -
1788035851 30.56° C 48% 1023.1 hPa 0 mm - 105 W/m² -
1788035545 30.56° C 49% 1023.3 hPa 0 mm - 510 W/m² -
1788035241 30° C 50% 1023.4 hPa 0 mm - 269 W/m² -
1788034936 30° C 49% 1023.3 hPa 0 mm - 110 W/m² -
1788034633 30.56° C 47% 1023.2 hPa 0 mm - 206 W/m² -
1788034329 30.56° C 47% 1023.4 hPa 0 mm - 543 W/m² -
1788034028 30° C 48% 1023.4 hPa 0 mm - 564 W/m² -
1788033722 30° C 49% 1023.6 hPa 0 mm - 142 W/m² -
1788033422 30.56° C 47% 1023.4 hPa 0 mm - 506 W/m² -
1788033112 31.11° C 48% 1023.5 hPa 0 mm - 481 W/m² -
1788032812 31.11° C 48% 1023.6 hPa 0 mm - 572 W/m² -
1788032506 31.67° C 48% 1023.6 hPa 0 mm - 507 W/m² -
1788032201 31.67° C 48% 1023.6 hPa 0 mm - 566 W/m² -
1788031897 31.67° C 45% 1023.8 hPa 0 mm - 593 W/m² -
1788031592 31.67° C 47% 1023.8 hPa 0 mm - 605 W/m² -
1788031292 31.11° C 46% 1023.8 hPa 0 mm - 645 W/m² -
1788030990 30.56° C 47% 1023.7 hPa 0 mm - 661 W/m² -
1788030685 30.56° C 48% 1023.9 hPa 0 mm - 595 W/m² -
1788030380 29.44° C 51% 1023.9 hPa 0 mm - 364 W/m² -
1788030076 29.44° C 53% 1023.9 hPa 0 mm - 172 W/m² -
1788029775 29.44° C 51% 1023.8 hPa 0 mm - 163 W/m² -
1788029470 30° C 49% 1023.9 hPa 0 mm - 190 W/m² -

* Rain latest hour (hover to see other rain measurements)
** Current wind speed in m/s (hover to see current wind gust speed)